FENGYUN 1C DEB, 30104

Orbit data source: Space-Track

FENGYUN 1C DEB, 30104 is space debris in SSO originally from a launch on Mon, 10 May 1999 UTC launched from the Taiyaun Space Center, China (TSC). Fengyun 1C debris stems from the Chinese weather satellite Fengyun-1C, which was intentionally destroyed by a Chinese anti-satellite missile in 2007. This event dramatically increased the amount of space debris, with thousands of trackable fragments posing hazards to satellites and human spaceflight. The Fengyun 1C debris cloud has become a focal point in discussions about space sustainability and the need for international regulations to prevent the creation of new debris.

Loading next visibility...
Identifier
30104, 1999-025RH
Orbit
SSO
Country
Flag of CNCN / PRC
Related business
Manufacturer
Unknown
Mission
Spacecraft
Bus & Motor
Unknown
Mass
Unknown
Launch date (UTC)
1999-05-10 (27 years ago)
Launch vehicle
Unknown
Launch site
Taiyaun Space Center, China (TSC)
Object type
Payload
Rocket body
Debris
Shape & HBR
Unknown shape, 0.1 m
Radar Cross Section
Medium (>0.1 m² and <1 m²)

Expand to show TLE details & history
Last TLE update: 13 hours ago

TLE from 13 hours ago
0 FENGYUN 1C DEB
1 30104U 99025RH  26166.79424453  .00000928  00000-0  39413-3 0  9994
2 30104  98.3556   0.4105 0071561 285.2080  93.0876 14.26210360  5284
Epoch: 2026-06-15T19:03Z
TLE epoch observation values (Epoch: 2026-06-15T19:03:42.727Z)
Latitude
18.9008°
Longitude
167.53969°
Altitude
809.996 km
Speed
7.448 km/s
True Right ascension
23h 50m 10s
True Declination
18° 47' 47"
Sunlit
Object was in daylight at epoch
Visualization orbit readout
Latitude
Unknown
Longitude
Unknown
Altitude
Unknown
Speed
Unknown
Apparent Right ascension
Unknown
Apparent Declination
Unknown
Sunlit
N/A
Visualization observer readout
Local Sidereal Time
19:06:01
Azimuth
Unknown
Elevation
Unknown
Doppler factor
Unknown
Orbital elements
Apogee altitude
852.938 km
Perigee altitude
750.181 km
Semi-major axis
7,179.697 km
Eccentricity
0.00716
Inclination
98.3556°
RAAN
0.4105°
Arg. of periapsis
285.208°
True anomaly
93.90602°
Mean anomaly
93.0876°
Eccentric anomaly
93.49685°
Mean motion
3.56766 °/min
Orbital period
100.91 mins
BSTAR
0.00039413
Loading maneuver chart data...
Computing Atmospheric mass density...
Loading historical data...
Loading historical data...
Loading historical data...
Loading historical data...
Loading historical data...
Loading historical data...
Loading historical data...

Documentation

Showing up to 5 results
|